Mojave, CA

1:36 PM PST on December 10, 2019 (GMT -0800)
Mojave

Weather History for KMHV - October, 2019

Change the Weather History Date:

Monday, October 28, 2019

  Actual Average Record
Temperature  
Mean Temperature 50 °F -  
Max Temperature 60 °F 71 °F 89 °F (1990)
Min Temperature 39 °F 44 °F 31 °F (1970)
Degree Days  
Heating Degree Days 16    
Moisture  
Dew Point 4 °F    
Average Humidity 17    
Maximum Humidity 26    
Minimum Humidity 7    
Precipitation  
Precipitation 0.00 in - - ()
Sea Level Pressure  
Sea Level Pressure 30.07 in    
Wind  
Wind Speed 11 mph ()    
Max Wind Speed 29 mph    
Max Gust Speed 44 mph    
Visibility 9.9 miles    
Events      
Averages and records for this station are not official NWS values.
T = Trace of Precipitation, MM = Missing Value Source: Averaged Metar Reports

Daily Weather History Graph

Daily Weather History Graph

Search for Another Location

Airport or City:

Astronomy

Oct. 28, 2019 Rise Set
Actual Time 7:09 AM PDT 6:02 PM PDT
Civil Twilight 6:43 AM PDT 6:28 PM PDT
Nautical Twilight 6:14 AM PDT 6:58 PM PDT
Astronomical Twilight 5:44 AM PDT 7:27 PM PDT
Moon 7:37 AM PDT (10/28) 6:51 PM PDT (10/28)
Length of Visible Light 11h 44m
Length of Day
10h 52m
New Moon, 1% of the Moon is Illuminated
Oct 28
New Moon
Nov 4
First Quarter
Nov 12
Full
Nov 19
Last Quarter
Nov 26
New

Hourly Weather History & Observations

Time (PDT) Temp. Windchill Dew Point Humidity Pressure Visibility Wind Dir Wind Speed Gust Speed Precip Events Conditions
12:00 AM 50.0 °F - 8.6 °F 19% 30.01 in 10.0 mi NE 24.2 mph 43.7 mph N/A   Mostly Cloudy
12:20 AM 50.0 °F - 8.6 °F 19% 30.00 in 10.0 mi North 28.8 mph 35.7 mph N/A   Partly Cloudy
12:40 AM 50.0 °F - 8.6 °F 19% 30.02 in 10.0 mi NNE 25.3 mph - N/A   Clear
1:00 AM 48.2 °F - 8.6 °F 20% 30.04 in 10.0 mi NNE 11.5 mph 20.7 mph N/A   Partly Cloudy
1:20 AM 48.2 °F - 8.6 °F 20% 30.03 in 10.0 mi ENE 17.3 mph - N/A   Partly Cloudy
1:40 AM 48.2 °F - 8.6 °F 20% 30.03 in 10.0 mi NE 19.6 mph 29.9 mph N/A   Clear
2:00 AM 48.2 °F - 8.6 °F 20% 30.05 in 10.0 mi ENE 12.7 mph - N/A   Clear
2:20 AM 46.4 °F 42.9 °F 8.6 °F 22% 30.06 in 10.0 mi East 6.9 mph 17.3 mph N/A   Clear
2:40 AM 46.4 °F 41.5 °F 8.6 °F 22% 30.07 in 10.0 mi NE 10.4 mph - N/A   Partly Cloudy
3:00 AM 44.6 °F 42.2 °F 8.6 °F 23% 30.07 in 10.0 mi NNE 4.6 mph - N/A   Clear
3:20 AM 42.8 °F 41.1 °F 8.6 °F 25% 30.08 in 10.0 mi East 3.5 mph - N/A   Partly Cloudy
3:40 AM 44.6 °F 40.2 °F 6.8 °F 21% 30.08 in 10.0 mi ENE 8.1 mph - N/A   Partly Cloudy
4:00 AM 44.6 °F 40.2 °F 8.6 °F 23% 30.08 in 10.0 mi ENE 8.1 mph - N/A   Scattered Clouds
4:20 AM 42.8 °F 39.3 °F 6.8 °F 23% 30.08 in 10.0 mi NNE 5.8 mph - N/A   Scattered Clouds
4:40 AM 41.0 °F 35.8 °F 6.8 °F 24% 30.10 in 10.0 mi NE 8.1 mph - N/A   Scattered Clouds
5:00 AM 41.0 °F 37.1 °F 6.8 °F 24% 30.11 in 10.0 mi NE 5.8 mph - N/A   Partly Cloudy
5:20 AM 39.2 °F 34.2 °F 6.8 °F 26% 30.11 in 10.0 mi East 6.9 mph - N/A   Partly Cloudy
5:40 AM 39.2 °F 33.6 °F 6.8 °F 26% 30.11 in 10.0 mi NE 8.1 mph - N/A   Partly Cloudy
6:00 AM 39.2 °F 33.0 °F 6.8 °F 26% 30.11 in 9.0 mi NNE 9.2 mph - N/A   Clear
6:20 AM 39.2 °F 32.5 °F 6.8 °F 26% 30.12 in 10.0 mi North 10.4 mph - N/A   Clear
6:40 AM 39.2 °F 31.6 °F 6.8 °F 26% 30.12 in 10.0 mi North 12.7 mph - N/A   Clear
7:00 AM 39.2 °F 32.5 °F 6.8 °F 26% 30.14 in 10.0 mi North 10.4 mph - N/A   Clear
7:20 AM 39.2 °F 33.6 °F 6.8 °F 26% 30.15 in 10.0 mi North 8.1 mph - N/A   Clear
7:40 AM 41.0 °F 36.4 °F 6.8 °F 24% 30.16 in 10.0 mi NNE 6.9 mph - N/A   Clear
8:00 AM 42.8 °F 37.0 °F 6.8 °F 23% 30.16 in 9.0 mi NNE 10.4 mph - N/A   Clear
8:20 AM 46.4 °F 42.9 °F 6.8 °F 20% 30.17 in 10.0 mi East 6.9 mph - N/A   Clear
8:40 AM 46.4 °F 42.4 °F 8.6 °F 22% 30.18 in 10.0 mi ENE 8.1 mph - N/A   Clear
9:00 AM 48.2 °F - 8.6 °F 20% 30.18 in 10.0 mi East 9.2 mph - N/A   Clear
9:20 AM 48.2 °F - 6.8 °F 19% 30.19 in 10.0 mi NE 8.1 mph - N/A   Clear
9:40 AM 50.0 °F - 6.8 °F 17% 30.19 in 10.0 mi ENE 8.1 mph - N/A   Clear
10:00 AM 50.0 °F - 5.0 °F 16% 30.19 in 10.0 mi Variable 6.9 mph - N/A   Clear
10:20 AM 50.0 °F - 5.0 °F 16% 30.19 in 10.0 mi ESE 6.9 mph - N/A   Clear
10:40 AM 51.8 °F - 5.0 °F 15% 30.19 in 10.0 mi NE 8.1 mph - N/A   Clear
11:00 AM 51.8 °F - 5.0 °F 15% 30.18 in 10.0 mi East 10.4 mph - N/A   Clear
11:20 AM 51.8 °F - 5.0 °F 15% 30.18 in 10.0 mi ENE 6.9 mph - N/A   Clear
11:40 AM 51.8 °F - 5.0 °F 15% 30.18 in 10.0 mi ENE 6.9 mph 13.8 mph N/A   Clear
12:00 PM 53.6 °F - 3.2 °F 13% 30.17 in 10.0 mi ENE 8.1 mph 16.1 mph N/A   Clear
12:20 PM 53.6 °F - 3.2 °F 13% 30.15 in 10.0 mi NE 9.2 mph - N/A   Clear
12:40 PM 55.4 °F - 3.2 °F 12% 30.14 in 10.0 mi East 9.2 mph - N/A   Clear
1:00 PM 55.4 °F - 3.2 °F 12% 30.13 in 10.0 mi ENE 5.8 mph 12.7 mph N/A   Clear
1:20 PM 55.4 °F - 3.2 °F 12% 30.12 in 10.0 mi NE 8.1 mph 16.1 mph N/A   Clear
1:40 PM 55.4 °F - 1.4 °F 11% 30.11 in 10.0 mi SE 8.1 mph - N/A   Clear
2:00 PM 57.2 °F - 1.4 °F 10% 30.09 in 10.0 mi ENE 8.1 mph - N/A   Clear
2:20 PM 57.2 °F - 1.4 °F 10% 30.08 in 10.0 mi Variable 4.6 mph - N/A   Clear
2:40 PM 57.2 °F - -2.2 °F 9% 30.07 in 10.0 mi Variable 4.6 mph 11.5 mph N/A   Clear
3:00 PM 59.0 °F - -2.2 °F 8% 30.06 in 10.0 mi Calm Calm - N/A   Clear
3:20 PM 59.0 °F - -4.0 °F 8% 30.05 in 10.0 mi SE 4.6 mph 12.7 mph N/A   Clear
3:40 PM 59.0 °F - -4.0 °F 8% 30.05 in 10.0 mi SSE 4.6 mph - N/A   Clear
4:00 PM 60.8 °F - -4.0 °F 7% 30.04 in 10.0 mi Calm Calm - N/A   Clear
4:20 PM 59.0 °F - -5.8 °F 7% 30.03 in 10.0 mi East 4.6 mph - N/A   Clear
4:40 PM 59.0 °F - -5.8 °F 7% 30.03 in 10.0 mi East 4.6 mph - N/A   Clear
5:00 PM 59.0 °F - -5.8 °F 7% 30.03 in 10.0 mi SE 4.6 mph - N/A   Clear
5:20 PM 59.0 °F - -5.8 °F 7% 30.01 in 10.0 mi Calm Calm - N/A   Clear
5:40 PM 57.2 °F - -5.8 °F 8% 30.01 in 10.0 mi South 6.9 mph - N/A   Clear
6:00 PM 57.2 °F - -5.8 °F 8% 30.00 in 10.0 mi SSW 4.6 mph - N/A   Clear
6:20 PM 55.4 °F - -5.8 °F 8% 30.00 in 10.0 mi SSW 5.8 mph - N/A   Clear
6:40 PM 51.8 °F - -5.8 °F 9% 30.00 in 10.0 mi West 4.6 mph - N/A   Mostly Cloudy
7:00 PM 48.2 °F - -7.6 °F 10% 30.00 in 10.0 mi West 6.9 mph - N/A   Scattered Clouds
7:20 PM 46.4 °F 43.5 °F -5.8 °F 11% 30.01 in 7.0 mi West 5.8 mph - N/A   Scattered Clouds
8:00 PM 48.2 °F - -5.8 °F 10% 30.01 in 10.0 mi WSW 4.6 mph - N/A   Overcast
8:20 PM 44.6 °F - -5.8 °F 12% 30.01 in 10.0 mi Calm Calm - N/A   Mostly Cloudy
8:40 PM 46.4 °F 43.5 °F -4.0 °F 12% 30.00 in 10.0 mi SSW 5.8 mph - N/A   Scattered Clouds
9:00 PM 46.4 °F 43.5 °F 3.2 °F 17% 30.00 in 10.0 mi SSW 5.8 mph - N/A   Partly Cloudy
9:20 PM 51.8 °F - 14.0 °F 22% 29.99 in 10.0 mi SSW 9.2 mph - N/A   Partly Cloudy
9:40 PM 51.8 °F - 8.6 °F 18% 29.98 in 10.0 mi South 16.1 mph - N/A   Partly Cloudy
10:00 PM 48.2 °F - 8.6 °F 20% 29.97 in 10.0 mi SSW 11.5 mph - N/A   Partly Cloudy
10:20 PM 51.8 °F - 12.2 °F 21% 29.96 in 10.0 mi South 15.0 mph 20.7 mph N/A   Partly Cloudy
10:40 PM 50.0 °F - 12.2 °F 22% 29.96 in 10.0 mi SW 12.7 mph - N/A   Partly Cloudy
11:00 PM 53.6 °F - 15.8 °F 22% 29.95 in 10.0 mi West 17.3 mph - N/A   Scattered Clouds
11:20 PM 53.6 °F - 15.8 °F 22% 29.95 in 10.0 mi West 13.8 mph 25.3 mph N/A   Scattered Clouds
11:40 PM 53.6 °F - 15.8 °F 22% 29.93 in 10.0 mi West 20.7 mph 29.9 mph N/A   Scattered Clouds